CFG2361 ZJHK-VTBS

Flight info

Callsign CFG2361
Flight time 1h 43m
Altitude 38000
Route ASSAD9XD ASSAD/K0872F380 A202 VILAO/N0471F380 A202 RAMEI W42 PAKRI Y13 RUKSA EASTE1D
Aircraft A339/H-SDE1E2E3GHIJ1J4J7LM1OP2RVWXYZ/LB1D1

Departure

Time 2026-05-09 08:13
Airport Haikou Meilan International Airport (ZJHK)

Arrival

Time 2026-05-09 09:57
Airport Suvarnabhumi Airport (VTBS)
Time Latitude Longitude Altitude Speed Heading
2026-05-09 07:39 19.94866 110.45681 85 ft 0 kts 179°
2026-05-09 08:03 19.94868 110.45681 85 ft 1 kts 180°
2026-05-09 08:03 19.94883 110.45681 84 ft 2 kts 180°
2026-05-09 08:03 19.94898 110.45681 84 ft 2 kts 180°
2026-05-09 08:03 19.94913 110.45681 84 ft 2 kts 180°
2026-05-09 08:04 19.94928 110.45681 83 ft 2 kts 180°
2026-05-09 08:04 19.94943 110.45681 83 ft 2 kts 181°
2026-05-09 08:04 19.94957 110.45686 83 ft 2 kts 225°
2026-05-09 08:04 19.94964 110.45699 83 ft 2 kts 259°
2026-05-09 08:05 19.94965 110.45706 83 ft 1 kts 272°
2026-05-09 08:05 19.94965 110.45709 83 ft 0 kts 270°
2026-05-09 08:07 19.94965 110.45689 83 ft 5 kts 270°
2026-05-09 08:07 19.94972 110.45630 82 ft 10 kts 292°
2026-05-09 08:07 19.95026 110.45559 81 ft 13 kts 318°
2026-05-09 08:08 19.95098 110.45538 80 ft 10 kts
2026-05-09 08:08 19.95177 110.45528 79 ft 11 kts 334°
2026-05-09 08:08 19.95202 110.45448 76 ft 13 kts 270°
2026-05-09 08:08 19.95203 110.45331 70 ft 18 kts 269°
2026-05-09 08:09 19.95202 110.45182 66 ft 21 kts 269°
2026-05-09 08:09 19.95201 110.45038 65 ft 18 kts 269°
2026-05-09 08:09 19.95199 110.44911 65 ft 16 kts 268°
2026-05-09 08:09 19.95215 110.44840 68 ft 6 kts 309°
2026-05-09 08:10 19.95241 110.44822 69 ft 0 kts 350°
2026-05-09 08:11 19.95258 110.44819 69 ft 4 kts 354°
2026-05-09 08:12 19.95372 110.44948 65 ft 26 kts 88°
2026-05-09 08:12 19.95373 110.45363 71 ft 87 kts 90°
2026-05-09 08:12 19.95376 110.46212 70 ft 143 kts 89°
2026-05-09 08:13 19.95380 110.47389 335 ft 165 kts 88°
2026-05-09 08:13 19.95395 110.48541 1075 ft 155 kts 84°
2026-05-09 08:13 19.95811 110.49548 1718 ft 154 kts 46°
2026-05-09 08:13 19.96814 110.50028 2132 ft 174 kts
2026-05-09 08:14 19.98050 110.49687 2468 ft 195 kts 342°
2026-05-09 08:14 19.99368 110.49121 2817 ft 212 kts 340°
2026-05-09 08:14 20.00793 110.48489 3150 ft 230 kts 340°
2026-05-09 08:14 20.02341 110.47805 3522 ft 248 kts 340°
2026-05-09 08:15 20.03958 110.47097 4106 ft 256 kts 340°
2026-05-09 08:15 20.05599 110.46381 4865 ft 257 kts 339°
2026-05-09 08:15 20.07262 110.45657 5606 ft 258 kts 339°
2026-05-09 08:15 20.08923 110.44938 6320 ft 259 kts 339°
2026-05-09 08:16 20.10570 110.44177 6987 ft 262 kts 329°
2026-05-09 08:16 20.11820 110.42774 7627 ft 267 kts 294°
2026-05-09 08:16 20.12188 110.40865 8308 ft 268 kts 274°
2026-05-09 08:16 20.12279 110.38850 8698 ft 283 kts 273°
2026-05-09 08:17 20.12383 110.36726 9174 ft 293 kts 274°
2026-05-09 08:17 20.12533 110.34548 9846 ft 295 kts 275°
2026-05-09 08:17 20.12715 110.32382 10530 ft 296 kts 276°
2026-05-09 08:17 20.12917 110.30221 11196 ft 298 kts 276°
2026-05-09 08:18 20.12889 110.28011 11797 ft 302 kts 255°
2026-05-09 08:18 20.12002 110.25984 12431 ft 306 kts 239°
2026-05-09 08:18 20.10831 110.24049 12771 ft 321 kts 237°
2026-05-09 08:18 20.09577 110.22014 13047 ft 337 kts 238°
2026-05-09 08:19 20.08288 110.19858 13321 ft 352 kts 238°
2026-05-09 08:19 20.06993 110.17625 13778 ft 360 kts 239°
2026-05-09 08:19 20.05696 110.15349 14400 ft 363 kts 239°
2026-05-09 08:19 20.04399 110.13048 15038 ft 365 kts 239°
2026-05-09 08:20 20.03089 110.10709 15615 ft 369 kts 239°
2026-05-09 08:20 20.01785 110.08373 16184 ft 372 kts 239°
2026-05-09 08:20 20.00451 110.05978 16764 ft 375 kts 239°
2026-05-09 08:20 19.99126 110.03597 17317 ft 378 kts 239°
2026-05-09 08:21 19.97778 110.01173 17882 ft 381 kts 239°
2026-05-09 08:21 19.96428 109.98751 18418 ft 384 kts 239°
2026-05-09 08:21 19.95066 109.96307 18940 ft 388 kts 239°
2026-05-09 08:21 19.93695 109.93845 19468 ft 390 kts 239°
2026-05-09 08:22 19.92309 109.91357 19970 ft 393 kts 239°
2026-05-09 08:22 19.90910 109.88845 20448 ft 397 kts 239°
2026-05-09 08:22 19.89512 109.86337 20919 ft 399 kts 239°
2026-05-09 08:22 19.88092 109.83790 21364 ft 403 kts 239°
2026-05-09 08:23 19.86659 109.81220 21821 ft 405 kts 239°
2026-05-09 08:23 19.85210 109.78623 22246 ft 408 kts 239°
2026-05-09 08:23 19.83760 109.76026 22683 ft 411 kts 239°
2026-05-09 08:23 19.82314 109.73438 23109 ft 414 kts 239°
2026-05-09 08:24 19.80838 109.70797 23543 ft 416 kts 240°
2026-05-09 08:24 19.79361 109.68156 23982 ft 418 kts 239°
2026-05-09 08:24 19.77871 109.65488 24397 ft 421 kts 239°
2026-05-09 08:24 19.76381 109.62824 24796 ft 423 kts 240°
2026-05-09 08:25 19.74873 109.60130 25203 ft 426 kts 240°
2026-05-09 08:25 19.73364 109.57437 25598 ft 428 kts 240°
2026-05-09 08:25 19.71833 109.54703 25991 ft 430 kts 240°
2026-05-09 08:25 19.70312 109.51989 26376 ft 432 kts 240°
2026-05-09 08:26 19.68777 109.49252 26738 ft 434 kts 240°
2026-05-09 08:26 19.67233 109.46497 27093 ft 437 kts 240°
2026-05-09 08:26 19.65673 109.43717 27452 ft 439 kts 240°
2026-05-09 08:26 19.64113 109.40938 27804 ft 441 kts 240°
2026-05-09 08:27 19.62546 109.38149 28139 ft 443 kts 240°
2026-05-09 08:27 19.60945 109.35297 28293 ft 450 kts 239°
2026-05-09 08:27 19.59341 109.32443 28422 ft 457 kts 239°
2026-05-09 08:27 19.57710 109.29542 28554 ft 464 kts 239°
2026-05-09 08:28 19.56047 109.26589 28766 ft 469 kts 239°
2026-05-09 08:28 19.54364 109.23601 29085 ft 471 kts 239°
2026-05-09 08:28 19.52620 109.20679 29372 ft 474 kts 237°
2026-05-09 08:28 19.50704 109.17817 29661 ft 477 kts 233°
2026-05-09 08:29 19.48655 109.15066 29967 ft 479 kts 231°
2026-05-09 08:29 19.46521 109.12296 30271 ft 482 kts 231°
2026-05-09 08:29 19.44417 109.09575 30563 ft 484 kts 232°
2026-05-09 08:29 19.42267 109.06795 30922 ft 485 kts 232°
2026-05-09 08:30 19.40142 109.04047 31381 ft 483 kts 232°
2026-05-09 08:30 19.38030 109.01316 31839 ft 482 kts 232°
2026-05-09 08:30 19.35893 108.98552 32268 ft 481 kts 232°
2026-05-09 08:30 19.33790 108.95830 32675 ft 480 kts 232°
2026-05-09 08:31 19.31666 108.93082 33109 ft 480 kts 232°
2026-05-09 08:31 19.29573 108.90375 33568 ft 479 kts 232°
2026-05-09 08:31 19.27456 108.87637 34058 ft 478 kts 232°
2026-05-09 08:31 19.25370 108.84942 34549 ft 476 kts 232°
2026-05-09 08:32 19.23271 108.82232 35039 ft 474 kts 232°
2026-05-09 08:32 19.21198 108.79557 35511 ft 473 kts 233°
2026-05-09 08:32 19.17052 108.74207 36328 ft 471 kts 233°
2026-05-09 08:33 19.14965 108.71516 36689 ft 471 kts 233°
2026-05-09 08:33 19.12885 108.68834 37041 ft 470 kts 233°
2026-05-09 08:33 19.10814 108.66165 37400 ft 470 kts 233°
2026-05-09 08:33 19.08750 108.63508 37757 ft 469 kts 233°
2026-05-09 08:34 19.06679 108.60839 37896 ft 470 kts 233°
2026-05-09 08:34 19.02549 108.55527 37896 ft 470 kts 233°
2026-05-09 08:35 18.98416 108.50217 37897 ft 469 kts 233°
2026-05-09 08:35 18.94262 108.44885 37894 ft 468 kts 233°
2026-05-09 08:36 18.90146 108.39605 37894 ft 468 kts 233°
2026-05-09 08:36 18.86000 108.34288 37894 ft 468 kts 233°
2026-05-09 08:37 18.81854 108.28979 37892 ft 467 kts 233°
2026-05-09 08:37 18.77731 108.23701 37891 ft 467 kts 233°
2026-05-09 08:38 18.73613 108.18437 37889 ft 468 kts 233°
2026-05-09 08:38 18.69471 108.13146 37890 ft 467 kts 233°
2026-05-09 08:39 18.65311 108.07837 37889 ft 468 kts 233°
2026-05-09 08:39 18.61189 108.02577 37889 ft 468 kts 233°
2026-05-09 08:40 18.57039 107.97290 37888 ft 467 kts 233°
2026-05-09 08:40 18.52897 107.92015 37887 ft 467 kts 233°
2026-05-09 08:41 18.48777 107.86774 37886 ft 468 kts 233°
2026-05-09 08:41 18.44606 107.81468 37886 ft 468 kts 232°
2026-05-09 08:42 18.40459 107.76198 37886 ft 467 kts 232°
2026-05-09 08:42 18.36311 107.70928 37883 ft 467 kts 233°
2026-05-09 08:43 18.32492 107.65459 37883 ft 465 kts 239°
2026-05-09 08:43 18.29010 107.59716 37883 ft 465 kts 239°
2026-05-09 08:44 18.25537 107.53957 37881 ft 466 kts 239°
2026-05-09 08:44 18.22062 107.48209 37885 ft 465 kts 239°
2026-05-09 08:45 18.18607 107.42500 37890 ft 465 kts 239°
2026-05-09 08:45 18.15139 107.36777 37894 ft 464 kts 239°
2026-05-09 08:46 18.11670 107.31055 37897 ft 465 kts 239°
2026-05-09 08:46 18.08176 107.25298 37897 ft 465 kts 239°
2026-05-09 08:47 18.04696 107.19578 37896 ft 466 kts 239°
2026-05-09 08:47 18.01176 107.13803 37895 ft 474 kts 239°
2026-05-09 08:48 17.97619 107.07970 37895 ft 475 kts 238°
2026-05-09 08:48 17.94053 107.02129 37895 ft 475 kts 239°
2026-05-09 08:49 17.90500 106.96309 37893 ft 475 kts 238°
2026-05-09 08:49 17.86938 106.90479 37893 ft 475 kts 239°
2026-05-09 08:50 17.83377 106.84620 37892 ft 476 kts 239°
2026-05-09 08:50 17.79827 106.78777 37892 ft 477 kts 239°
2026-05-09 08:51 17.76247 106.72893 37889 ft 477 kts 239°
2026-05-09 08:51 17.72699 106.67066 37888 ft 477 kts 239°
2026-05-09 08:52 17.69118 106.61190 37884 ft 477 kts 239°
2026-05-09 08:52 17.65531 106.55330 37881 ft 477 kts 239°
2026-05-09 08:53 17.61941 106.49485 37878 ft 477 kts 239°
2026-05-09 08:53 17.58353 106.43639 37882 ft 477 kts 239°
2026-05-09 08:54 17.54785 106.37828 37887 ft 477 kts 239°
2026-05-09 08:54 17.51175 106.31954 37901 ft 478 kts 238°
2026-05-09 08:55 17.47580 106.26109 37913 ft 478 kts 238°
2026-05-09 08:55 17.44004 106.20300 37931 ft 478 kts 238°
2026-05-09 08:56 17.40397 106.14443 37941 ft 478 kts 238°
2026-05-09 08:56 17.36818 106.08638 37941 ft 477 kts 238°
2026-05-09 08:57 17.33247 106.02774 37927 ft 477 kts 239°
2026-05-09 08:57 17.29710 105.96925 37907 ft 477 kts 239°
2026-05-09 08:58 17.26170 105.91080 37890 ft 476 kts 239°
2026-05-09 08:58 17.22607 105.85204 37884 ft 477 kts 239°
2026-05-09 08:59 17.19075 105.79385 37885 ft 478 kts 239°
2026-05-09 08:59 17.15504 105.73511 37884 ft 478 kts 239°
2026-05-09 09:00 17.11934 105.67642 37874 ft 478 kts 239°
2026-05-09 09:00 17.08376 105.61794 37869 ft 477 kts 239°
2026-05-09 09:01 17.04823 105.55959 37869 ft 477 kts 239°
2026-05-09 09:01 17.01269 105.50127 37864 ft 477 kts 239°
2026-05-09 09:02 16.97704 105.44286 37865 ft 478 kts 239°
2026-05-09 09:02 16.94142 105.38452 37861 ft 478 kts 239°
2026-05-09 09:03 16.90556 105.32580 37858 ft 478 kts 238°
2026-05-09 09:03 16.86983 105.26737 37861 ft 478 kts 238°
2026-05-09 09:04 16.83401 105.20894 37855 ft 478 kts 238°
2026-05-09 09:04 16.79814 105.15057 37846 ft 479 kts 238°
2026-05-09 09:05 16.76224 105.09221 37842 ft 479 kts 238°
2026-05-09 09:05 16.72635 105.03384 37842 ft 479 kts 238°
2026-05-09 09:06 16.69038 104.97536 37845 ft 479 kts 238°
2026-05-09 09:06 16.65442 104.91696 37839 ft 480 kts 238°
2026-05-09 09:07 16.61838 104.85845 37832 ft 481 kts 238°
2026-05-09 09:07 16.58186 104.79952 37833 ft 483 kts 237°
2026-05-09 09:08 16.54175 104.74389 37829 ft 485 kts 231°
2026-05-09 09:08 16.49702 104.69123 37828 ft 485 kts 229°
2026-05-09 09:09 16.45178 104.63875 37826 ft 484 kts 229°
2026-05-09 09:09 16.40680 104.58649 37821 ft 484 kts 229°
2026-05-09 09:10 16.36177 104.53413 37821 ft 484 kts 229°
2026-05-09 09:10 16.31690 104.48198 37813 ft 486 kts 229°
2026-05-09 09:11 16.27161 104.42938 37813 ft 488 kts 229°
2026-05-09 09:11 16.22597 104.37704 37808 ft 489 kts 229°
2026-05-09 09:12 16.18041 104.32507 37805 ft 488 kts 228°
2026-05-09 09:12 16.13442 104.27257 37802 ft 489 kts 228°
2026-05-09 09:13 16.08885 104.22050 37800 ft 489 kts 228°
2026-05-09 09:13 16.04304 104.16808 37800 ft 489 kts 229°
2026-05-09 09:14 15.99787 104.11546 37797 ft 491 kts 229°
2026-05-09 09:14 15.95221 104.06214 37785 ft 492 kts 229°
2026-05-09 09:15 15.90695 104.00938 37783 ft 492 kts 229°
2026-05-09 09:15 15.86142 103.95637 37798 ft 491 kts 229°
2026-05-09 09:16 15.81584 103.90337 37801 ft 490 kts 229°
2026-05-09 09:16 15.74783 103.82434 37804 ft 490 kts 229°
2026-05-09 09:17 15.70247 103.77166 37801 ft 490 kts 229°
2026-05-09 09:17 15.65689 103.71876 37798 ft 491 kts 229°
2026-05-09 09:18 15.61153 103.66616 37790 ft 491 kts 229°
2026-05-09 09:18 15.56610 103.61354 37788 ft 490 kts 229°
2026-05-09 09:19 15.52035 103.56056 37788 ft 490 kts 229°
2026-05-09 09:19 15.47506 103.50816 37785 ft 489 kts 229°
2026-05-09 09:20 15.42963 103.45563 37787 ft 489 kts 229°
2026-05-09 09:20 15.38416 103.40308 37798 ft 489 kts 229°
2026-05-09 09:21 15.33894 103.35086 37802 ft 490 kts 229°
2026-05-09 09:21 15.29321 103.29809 37805 ft 490 kts 229°
2026-05-09 09:22 15.24785 103.24578 37808 ft 490 kts 229°
2026-05-09 09:22 15.20210 103.19304 37811 ft 489 kts 229°
2026-05-09 09:23 15.15691 103.14097 37809 ft 488 kts 228°
2026-05-09 09:23 15.11133 103.08851 37804 ft 489 kts 228°
2026-05-09 09:24 15.06322 103.03834 37801 ft 491 kts 222°
2026-05-09 09:24 15.01025 102.99377 37799 ft 491 kts 216°
2026-05-09 09:25 14.95371 102.95455 37792 ft 491 kts 215°
2026-05-09 09:25 14.90133 102.90951 37791 ft 489 kts 226°
2026-05-09 09:26 14.85984 102.85369 37793 ft 488 kts 240°
2026-05-09 09:26 14.83198 102.79043 37800 ft 488 kts 252°
2026-05-09 09:27 14.81150 102.72368 37801 ft 488 kts 253°
2026-05-09 09:27 14.79129 102.65661 37804 ft 488 kts 253°
2026-05-09 09:28 14.77088 102.58972 37808 ft 488 kts 253°
2026-05-09 09:28 14.75041 102.52307 37710 ft 489 kts 253°
2026-05-09 09:29 14.74019 102.48987 37142 ft 489 kts 253°
2026-05-09 09:29 14.72992 102.45651 36548 ft 489 kts 253°
2026-05-09 09:29 14.71958 102.42297 35953 ft 490 kts 253°
2026-05-09 09:29 14.70926 102.38952 35364 ft 491 kts 253°
2026-05-09 09:30 14.69886 102.35580 34774 ft 492 kts 253°
2026-05-09 09:30 14.68860 102.32257 34198 ft 493 kts 252°
2026-05-09 09:30 14.67814 102.28876 33616 ft 495 kts 252°
2026-05-09 09:30 14.66770 102.25496 33042 ft 497 kts 252°
2026-05-09 09:31 14.65718 102.22097 32466 ft 499 kts 252°
2026-05-09 09:31 14.64657 102.18671 31956 ft 499 kts 252°
2026-05-09 09:31 14.63612 102.15293 31435 ft 496 kts 252°
2026-05-09 09:32 14.61537 102.08588 30375 ft 488 kts 252°
2026-05-09 09:32 14.60500 102.05243 29840 ft 484 kts 252°
2026-05-09 09:32 14.59491 102.01990 29318 ft 481 kts 252°
2026-05-09 09:32 14.58469 101.98698 28785 ft 477 kts 252°
2026-05-09 09:33 14.57466 101.95470 28268 ft 474 kts 252°
2026-05-09 09:33 14.56426 101.92252 27761 ft 471 kts 250°
2026-05-09 09:33 14.55237 101.89116 27232 ft 468 kts 247°
2026-05-09 09:33 14.54003 101.86021 26677 ft 466 kts 247°
2026-05-09 09:34 14.52778 101.82974 26127 ft 464 kts 247°
2026-05-09 09:34 14.51548 101.79918 25574 ft 462 kts 247°
2026-05-09 09:34 14.50324 101.76873 24995 ft 460 kts 247°
2026-05-09 09:36 14.41861 101.55783 20821 ft 451 kts 247°
2026-05-09 09:36 14.40662 101.52797 20237 ft 449 kts 247°
2026-05-09 09:36 14.39461 101.49809 19651 ft 448 kts 247°
2026-05-09 09:37 14.38292 101.46901 19255 ft 441 kts 247°
2026-05-09 09:37 14.37118 101.43978 18902 ft 434 kts 247°
2026-05-09 09:37 14.35981 101.41151 18603 ft 426 kts 247°
2026-05-09 09:37 14.34854 101.38351 18320 ft 418 kts 247°
2026-05-09 09:38 14.33748 101.35632 18038 ft 410 kts 245°
2026-05-09 09:38 14.32192 101.33241 17770 ft 398 kts 223°
2026-05-09 09:38 14.29944 101.31633 17537 ft 387 kts 208°
2026-05-09 09:38 14.27628 101.30290 17294 ft 380 kts 208°
2026-05-09 09:39 14.25350 101.28942 17046 ft 373 kts 209°
2026-05-09 09:39 14.23113 101.27582 16790 ft 367 kts 210°
2026-05-09 09:39 14.20923 101.26222 16481 ft 366 kts 210°
2026-05-09 09:39 14.18770 101.24866 16176 ft 366 kts 210°
2026-05-09 09:40 14.16584 101.23477 15867 ft 365 kts 211°
2026-05-09 09:40 14.14457 101.22118 15564 ft 363 kts 210°
2026-05-09 09:40 14.12308 101.20739 15255 ft 362 kts 211°
2026-05-09 09:40 14.10157 101.19357 14945 ft 360 kts 211°
2026-05-09 09:41 14.08053 101.18006 14644 ft 359 kts 211°
2026-05-09 09:41 14.05934 101.16645 14340 ft 357 kts 211°
2026-05-09 09:41 14.03815 101.15282 14013 ft 356 kts 211°
2026-05-09 09:41 14.01716 101.13933 13662 ft 355 kts 211°
2026-05-09 09:42 13.99611 101.12579 13288 ft 354 kts 211°
2026-05-09 09:42 13.97550 101.11253 12903 ft 353 kts 210°
2026-05-09 09:42 13.95459 101.09911 12504 ft 352 kts 210°
2026-05-09 09:42 13.93376 101.08575 12117 ft 352 kts 211°
2026-05-09 09:43 13.91307 101.07246 11725 ft 352 kts 211°
2026-05-09 09:43 13.89219 101.05906 11336 ft 351 kts 211°
2026-05-09 09:43 13.87133 101.04567 10942 ft 351 kts 211°
2026-05-09 09:43 13.85056 101.03235 10528 ft 351 kts 211°
2026-05-09 09:44 13.83001 101.01915 10380 ft 342 kts 211°
2026-05-09 09:44 13.81016 101.00639 10333 ft 330 kts 211°
2026-05-09 09:44 13.79111 100.99416 10247 ft 321 kts 211°
2026-05-09 09:44 13.77241 100.98215 10131 ft 313 kts 211°
2026-05-09 09:45 13.75402 100.97036 9952 ft 308 kts 211°
2026-05-09 09:45 13.73583 100.95870 9721 ft 305 kts 210°
2026-05-09 09:45 13.71772 100.94710 9453 ft 304 kts 211°
2026-05-09 09:45 13.69997 100.93572 9156 ft 304 kts 211°
2026-05-09 09:46 13.68177 100.92406 8844 ft 304 kts 211°
2026-05-09 09:46 13.66385 100.91259 8534 ft 304 kts 211°
2026-05-09 09:46 13.64598 100.90114 8238 ft 303 kts 210°
2026-05-09 09:46 13.62798 100.88961 7944 ft 299 kts 211°
2026-05-09 09:47 13.61069 100.87852 7656 ft 286 kts 210°
2026-05-09 09:47 13.59421 100.86795 7420 ft 276 kts 210°
2026-05-09 09:47 13.57786 100.85749 7146 ft 278 kts 210°
2026-05-09 09:47 13.56139 100.84696 6835 ft 280 kts 210°
2026-05-09 09:48 13.54463 100.83624 6524 ft 281 kts 210°
2026-05-09 09:48 13.52836 100.82583 6186 ft 272 kts 210°
2026-05-09 09:48 13.51242 100.81563 5887 ft 263 kts 210°
2026-05-09 09:48 13.49715 100.80585 5578 ft 255 kts 210°
2026-05-09 09:49 13.48235 100.79639 5285 ft 247 kts 211°
2026-05-09 09:49 13.46768 100.78772 5023 ft 243 kts 203°
2026-05-09 09:49 13.45166 100.78173 4725 ft 244 kts 194°
2026-05-09 09:49 13.43525 100.77685 4431 ft 246 kts 194°
2026-05-09 09:50 13.41871 100.77196 4132 ft 248 kts 194°
2026-05-09 09:50 13.40211 100.76672 3862 ft 248 kts 203°
2026-05-09 09:50 13.38859 100.75588 3611 ft 249 kts 234°
2026-05-09 09:50 13.38241 100.73957 3415 ft 247 kts 266°
2026-05-09 09:51 13.38522 100.72263 3236 ft 243 kts 297°
2026-05-09 09:51 13.39585 100.70972 3106 ft 235 kts 323°
2026-05-09 09:51 13.40920 100.70021 2992 ft 230 kts 328°
2026-05-09 09:51 13.42376 100.69381 2863 ft 229 kts 354°
2026-05-09 09:52 13.43968 100.69439 2752 ft 228 kts 12°
2026-05-09 09:52 13.45514 100.69809 2631 ft 229 kts 17°
2026-05-09 09:52 13.47068 100.70258 2514 ft 230 kts 17°
2026-05-09 09:52 13.48617 100.70700 2395 ft 230 kts 17°
2026-05-09 09:53 13.50167 100.71124 2278 ft 230 kts 16°
2026-05-09 09:53 13.51722 100.71533 2153 ft 229 kts 15°
2026-05-09 09:53 13.53230 100.71925 2021 ft 215 kts 15°
2026-05-09 09:53 13.54611 100.72283 2004 ft 195 kts 15°
2026-05-09 09:54 13.55903 100.72620 1845 ft 186 kts 15°
2026-05-09 09:54 13.57137 100.72944 1617 ft 181 kts 15°
2026-05-09 09:54 13.58340 100.73259 1405 ft 178 kts 15°
2026-05-09 09:54 13.59550 100.73576 1190 ft 174 kts 15°
2026-05-09 09:55 13.60709 100.73880 975 ft 169 kts 14°
2026-05-09 09:55 13.61836 100.74174 767 ft 164 kts 15°
2026-05-09 09:55 13.62927 100.74461 564 ft 158 kts 14°
2026-05-09 09:55 13.63977 100.74737 371 ft 153 kts 15°
2026-05-09 09:56 13.65006 100.75010 174 ft 152 kts 14°
2026-05-09 09:56 13.66045 100.75279 31 ft 147 kts 15°
2026-05-09 09:56 13.66948 100.75518 22 ft 115 kts 15°
2026-05-09 09:56 13.67557 100.75678 20 ft 62 kts 15°
2026-05-09 09:57 13.67895 100.75734 20 ft 35 kts 355°
2026-05-09 09:57 13.68057 100.75700 21 ft 10 kts 338°
2026-05-09 09:57 13.68106 100.75684 21 ft 7 kts 348°
2026-05-09 09:57 13.68170 100.75671 21 ft 11 kts 348°
2026-05-09 09:58 13.68246 100.75669 22 ft 7 kts
2026-05-09 09:58 13.68288 100.75668 23 ft 6 kts 333°
2026-05-09 09:58 13.68321 100.75623 23 ft 8 kts 282°
2026-05-09 09:58 13.68337 100.75561 24 ft 10 kts 285°
2026-05-09 09:59 13.68358 100.75478 26 ft 11 kts 285°
2026-05-09 09:59 13.68380 100.75395 27 ft 12 kts 285°
2026-05-09 09:59 13.68409 100.75277 25 ft 19 kts 284°
2026-05-09 09:59 13.68439 100.75156 22 ft 13 kts 284°
2026-05-09 10:00 13.68491 100.75108 22 ft 11 kts
2026-05-09 10:00 13.68568 100.75124 23 ft 11 kts 15°
2026-05-09 10:00 13.68660 100.75150 24 ft 15 kts 15°
2026-05-09 10:00 13.68766 100.75178 25 ft 16 kts 14°
2026-05-09 10:01 13.68878 100.75208 26 ft 16 kts 14°
2026-05-09 10:01 13.68951 100.75185 26 ft 9 kts 288°
2026-05-09 10:01 13.68969 100.75119 26 ft 11 kts 288°
2026-05-09 10:01 13.68994 100.75029 25 ft 14 kts 285°
2026-05-09 10:02 13.69023 100.74969 24 ft 4 kts 327°
2026-05-09 10:02 13.69055 100.74972 24 ft 5 kts 16°
2026-05-09 10:02 13.69089 100.74981 24 ft 2 kts 14°
2026-05-09 10:02 13.69092 100.74982 24 ft 0 kts 14°